Year,Month,Day,Hour,Minute,Value (Times are PST for temperature in C)
2012,07,17,00,00,17.70
2012,07,17,00,01,17.70
2012,07,17,00,02,17.70
2012,07,17,00,03,17.70
2012,07,17,00,04,17.70
2012,07,17,00,05,17.60
2012,07,17,00,06,17.60
2012,07,17,00,07,17.60
2012,07,17,00,08,17.60
2012,07,17,00,09,17.60
2012,07,17,00,10,17.60
2012,07,17,00,11,17.50
2012,07,17,00,12,17.50
2012,07,17,00,13,17.50
2012,07,17,00,14,17.40
2012,07,17,00,15,17.40
2012,07,17,00,16,17.40
2012,07,17,00,17,17.40
2012,07,17,00,18,17.40
2012,07,17,00,19,17.40
2012,07,17,00,20,17.30
2012,07,17,00,21,17.30
2012,07,17,00,22,17.30
2012,07,17,00,23,17.30
2012,07,17,00,24,17.20
2012,07,17,00,25,17.20
2012,07,17,00,26,17.20
2012,07,17,00,27,17.10
2012,07,17,00,28,17.10
2012,07,17,00,29,17.10
2012,07,17,00,30,17.10
2012,07,17,00,31,17.00
2012,07,17,00,32,17.00
2012,07,17,00,33,17.00
2012,07,17,00,34,17.00
2012,07,17,00,35,17.00
2012,07,17,00,36,16.90
2012,07,17,00,37,16.90
2012,07,17,00,38,16.90
2012,07,17,00,39,16.90
2012,07,17,00,40,16.90
2012,07,17,00,41,16.90
2012,07,17,00,42,16.90
2012,07,17,00,43,16.90
2012,07,17,00,44,16.90
2012,07,17,00,45,16.90
2012,07,17,00,46,16.90
2012,07,17,00,47,16.90
2012,07,17,00,48,16.90
2012,07,17,00,49,16.90
2012,07,17,00,50,16.90
2012,07,17,00,51,16.90
2012,07,17,00,52,16.90
2012,07,17,00,53,16.80
2012,07,17,00,54,16.80
2012,07,17,00,55,16.80
2012,07,17,00,56,16.80
2012,07,17,00,57,16.80
2012,07,17,00,58,16.80
2012,07,17,00,59,16.80
2012,07,17,01,00,16.80
2012,07,17,01,01,16.80
2012,07,17,01,02,16.70
2012,07,17,01,03,16.70
2012,07,17,01,04,16.70
2012,07,17,01,05,16.70
2012,07,17,01,06,16.60
2012,07,17,01,07,16.60
2012,07,17,01,08,16.60
2012,07,17,01,09,16.60
2012,07,17,01,10,16.60
2012,07,17,01,11,16.50
2012,07,17,01,12,16.50
2012,07,17,01,13,16.50
2012,07,17,01,14,16.40
2012,07,17,01,15,16.40
2012,07,17,01,16,16.40
2012,07,17,01,17,16.40
2012,07,17,01,18,16.40
2012,07,17,01,19,16.40
2012,07,17,01,20,16.40
2012,07,17,01,21,16.30
2012,07,17,01,22,16.30
2012,07,17,01,23,16.30
2012,07,17,01,24,16.30
2012,07,17,01,25,16.30
2012,07,17,01,26,16.30
2012,07,17,01,27,16.30
2012,07,17,01,28,16.30
2012,07,17,01,29,16.30
2012,07,17,01,30,16.30
2012,07,17,01,31,16.30
2012,07,17,01,32,16.20
2012,07,17,01,33,16.20
2012,07,17,01,34,16.20
2012,07,17,01,35,16.20
2012,07,17,01,36,16.20
2012,07,17,01,37,16.20
2012,07,17,01,38,16.20
2012,07,17,01,39,16.20
2012,07,17,01,40,16.20
2012,07,17,01,41,16.10
2012,07,17,01,42,16.10
2012,07,17,01,43,16.10
2012,07,17,01,44,16.10
2012,07,17,01,45,16.10
2012,07,17,01,46,16.10
2012,07,17,01,47,16.10
2012,07,17,01,48,16.00
2012,07,17,01,49,16.00
2012,07,17,01,50,16.00
2012,07,17,01,51,16.00
2012,07,17,01,52,16.00
2012,07,17,01,53,15.90
2012,07,17,01,54,15.90
2012,07,17,01,55,15.90
2012,07,17,01,56,15.90
2012,07,17,01,57,15.90
2012,07,17,01,58,15.90
2012,07,17,01,59,15.90
2012,07,17,02,00,15.90
2012,07,17,02,01,15.90
2012,07,17,02,02,15.90
2012,07,17,02,03,15.90
2012,07,17,02,04,15.90
2012,07,17,02,05,15.90
2012,07,17,02,06,15.90
2012,07,17,02,07,15.90
2012,07,17,02,08,15.80
2012,07,17,02,09,15.80
2012,07,17,02,10,15.80
2012,07,17,02,11,15.80
2012,07,17,02,12,15.80
2012,07,17,02,13,15.80
2012,07,17,02,14,15.80
2012,07,17,02,15,15.80
2012,07,17,02,16,15.80
2012,07,17,02,17,15.80
2012,07,17,02,18,15.80
2012,07,17,02,19,15.80
2012,07,17,02,20,15.80
2012,07,17,02,21,15.70
2012,07,17,02,22,15.70
2012,07,17,02,23,15.70
2012,07,17,02,24,15.70
2012,07,17,02,25,15.70
2012,07,17,02,26,15.70
2012,07,17,02,27,15.60
2012,07,17,02,28,15.60
2012,07,17,02,29,15.60
2012,07,17,02,30,15.60
2012,07,17,02,31,15.60
2012,07,17,02,32,15.60
2012,07,17,02,33,15.60
2012,07,17,02,34,15.50
2012,07,17,02,35,15.50
2012,07,17,02,36,15.50
2012,07,17,02,37,15.50
2012,07,17,02,38,15.50
2012,07,17,02,39,15.50
2012,07,17,02,40,15.40
2012,07,17,02,41,15.40
2012,07,17,02,42,15.40
2012,07,17,02,43,15.40
2012,07,17,02,44,15.40
2012,07,17,02,45,15.40
2012,07,17,02,46,15.40
2012,07,17,02,47,15.40
2012,07,17,02,48,15.40
2012,07,17,02,49,15.40
2012,07,17,02,50,15.40
2012,07,17,02,51,15.40
2012,07,17,02,52,15.40
2012,07,17,02,53,15.40
2012,07,17,02,54,15.40
2012,07,17,02,55,15.40
2012,07,17,02,56,15.40
2012,07,17,02,57,15.30
2012,07,17,02,58,15.30
2012,07,17,02,59,15.30
2012,07,17,03,00,15.30
2012,07,17,03,01,15.30
2012,07,17,03,02,15.30
2012,07,17,03,03,15.30
2012,07,17,03,04,15.30
2012,07,17,03,05,15.30
2012,07,17,03,06,15.30
2012,07,17,03,07,15.30
2012,07,17,03,08,15.30
2012,07,17,03,09,15.30
2012,07,17,03,10,15.30
2012,07,17,03,11,15.20
2012,07,17,03,12,15.20
2012,07,17,03,13,15.20
2012,07,17,03,14,15.20
2012,07,17,03,15,15.20
2012,07,17,03,16,15.20
2012,07,17,03,17,15.20
2012,07,17,03,18,15.20
2012,07,17,03,19,15.20
2012,07,17,03,20,15.20
2012,07,17,03,21,15.20
2012,07,17,03,22,15.20
2012,07,17,03,23,15.20
2012,07,17,03,24,15.20
2012,07,17,03,25,15.20
2012,07,17,03,26,15.10
2012,07,17,03,27,15.10
2012,07,17,03,28,15.10
2012,07,17,03,29,15.10
2012,07,17,03,30,15.10
2012,07,17,03,31,15.10
2012,07,17,03,32,15.10
2012,07,17,03,33,15.10
2012,07,17,03,34,15.10
2012,07,17,03,35,15.10
2012,07,17,03,36,15.10
2012,07,17,03,37,15.10
2012,07,17,03,38,15.10
2012,07,17,03,39,15.00
2012,07,17,03,40,15.00
2012,07,17,03,41,15.00
2012,07,17,03,42,15.00
2012,07,17,03,43,15.00
2012,07,17,03,44,15.00
2012,07,17,03,45,15.00
2012,07,17,03,46,14.90
2012,07,17,03,47,14.90
2012,07,17,03,48,14.90
2012,07,17,03,49,14.90
2012,07,17,03,50,14.90
2012,07,17,03,51,14.90
2012,07,17,03,52,14.90
2012,07,17,03,53,14.90
2012,07,17,03,54,14.90
2012,07,17,03,55,14.90
2012,07,17,03,56,14.90
2012,07,17,03,57,14.90
2012,07,17,03,58,14.90
2012,07,17,03,59,14.90
2012,07,17,04,00,14.90
2012,07,17,04,01,14.90
2012,07,17,04,02,14.90
2012,07,17,04,03,14.90
2012,07,17,04,04,14.80
2012,07,17,04,05,14.80
2012,07,17,04,06,14.80
2012,07,17,04,07,14.80
2012,07,17,04,08,14.80
2012,07,17,04,09,14.80
2012,07,17,04,10,14.80
2012,07,17,04,11,14.80
2012,07,17,04,12,14.80
2012,07,17,04,13,14.80
2012,07,17,04,14,14.80
2012,07,17,04,15,14.80
2012,07,17,04,16,14.80
2012,07,17,04,17,14.80
2012,07,17,04,18,14.80
2012,07,17,04,19,14.80
2012,07,17,04,20,14.80
2012,07,17,04,21,14.80
2012,07,17,04,22,14.80
2012,07,17,04,23,14.80
2012,07,17,04,24,14.80
2012,07,17,04,25,14.80
2012,07,17,04,26,14.80
2012,07,17,04,27,14.80
2012,07,17,04,28,14.80
2012,07,17,04,29,14.80
2012,07,17,04,30,14.80
2012,07,17,04,31,14.80
2012,07,17,04,32,14.80
2012,07,17,04,33,14.80
2012,07,17,04,34,14.80
2012,07,17,04,35,14.90
2012,07,17,04,36,14.90
2012,07,17,04,37,14.80
2012,07,17,04,38,14.90
2012,07,17,04,39,14.80
2012,07,17,04,40,14.80
2012,07,17,04,41,14.80
2012,07,17,04,42,14.80
2012,07,17,04,43,14.80
2012,07,17,04,44,14.80
2012,07,17,04,45,14.80
2012,07,17,04,46,14.80
2012,07,17,04,47,14.80
2012,07,17,04,48,14.80
2012,07,17,04,49,14.80
2012,07,17,04,50,14.80
2012,07,17,04,51,14.80
2012,07,17,04,52,14.80
2012,07,17,04,53,14.80
2012,07,17,04,54,14.80
2012,07,17,04,55,14.80
2012,07,17,04,56,14.80
2012,07,17,04,57,14.80
2012,07,17,04,58,14.80
2012,07,17,04,59,14.70
2012,07,17,05,00,14.70
2012,07,17,05,01,14.70
2012,07,17,05,02,14.70
2012,07,17,05,03,14.70
2012,07,17,05,04,14.70
2012,07,17,05,05,14.80
2012,07,17,05,06,14.90
2012,07,17,05,07,14.90
2012,07,17,05,08,14.90
2012,07,17,05,09,14.90
2012,07,17,05,10,14.90
2012,07,17,05,11,14.90
2012,07,17,05,12,14.90
2012,07,17,05,13,14.90
2012,07,17,05,14,14.90
2012,07,17,05,15,14.90
2012,07,17,05,16,14.80
2012,07,17,05,17,14.80
2012,07,17,05,18,14.80
2012,07,17,05,19,14.80
2012,07,17,05,20,14.80
2012,07,17,05,21,14.80
2012,07,17,05,22,14.70
2012,07,17,05,23,14.70
2012,07,17,05,24,14.70
2012,07,17,05,25,14.70
2012,07,17,05,26,14.70
2012,07,17,05,27,14.60
2012,07,17,05,28,14.60
2012,07,17,05,29,14.60
2012,07,17,05,30,14.60
2012,07,17,05,31,14.60
2012,07,17,05,32,14.60
2012,07,17,05,33,14.60
2012,07,17,05,34,14.60
2012,07,17,05,35,14.60
2012,07,17,05,36,14.60
2012,07,17,05,37,14.60
2012,07,17,05,38,14.60
2012,07,17,05,39,14.50
2012,07,17,05,40,14.50
2012,07,17,05,41,14.50
2012,07,17,05,42,14.50
2012,07,17,05,43,14.50
2012,07,17,05,44,14.50
2012,07,17,05,45,14.50
2012,07,17,05,46,14.40
2012,07,17,05,47,14.40
2012,07,17,05,48,14.40
2012,07,17,05,49,14.40
2012,07,17,05,50,14.40
2012,07,17,05,51,14.40
2012,07,17,05,52,14.40
2012,07,17,05,53,14.40
2012,07,17,05,54,14.40
2012,07,17,05,55,14.40
2012,07,17,05,56,14.40
2012,07,17,05,57,14.30
2012,07,17,05,58,14.30
2012,07,17,05,59,14.30
2012,07,17,06,00,14.30
2012,07,17,06,01,14.30
2012,07,17,06,02,14.30
2012,07,17,06,03,14.30
2012,07,17,06,04,14.30
2012,07,17,06,05,14.30
2012,07,17,06,06,14.30
2012,07,17,06,07,14.30
2012,07,17,06,08,14.30
2012,07,17,06,09,14.30
2012,07,17,06,10,14.30
2012,07,17,06,11,14.30
2012,07,17,06,12,14.30
2012,07,17,06,13,14.30
2012,07,17,06,14,14.30
2012,07,17,06,15,14.30
2012,07,17,06,16,14.30
2012,07,17,06,17,14.30
2012,07,17,06,18,14.30
2012,07,17,06,19,14.30
2012,07,17,06,20,14.30
2012,07,17,06,21,14.30
2012,07,17,06,22,14.30
2012,07,17,06,23,14.30
2012,07,17,06,24,14.30
2012,07,17,06,25,14.30
2012,07,17,06,26,14.30
2012,07,17,06,27,14.30
2012,07,17,06,28,14.30
2012,07,17,06,29,14.30
2012,07,17,06,30,14.30
2012,07,17,06,31,14.30
2012,07,17,06,32,14.30
2012,07,17,06,33,14.30
2012,07,17,06,34,14.30
2012,07,17,06,35,14.30
2012,07,17,06,36,14.30
2012,07,17,06,37,14.30
2012,07,17,06,38,14.30
2012,07,17,06,39,14.30
2012,07,17,06,40,14.30
2012,07,17,06,41,14.30
2012,07,17,06,42,14.30
2012,07,17,06,43,14.30
2012,07,17,06,44,14.30
2012,07,17,06,45,14.30
2012,07,17,06,46,14.30
2012,07,17,06,47,14.30
2012,07,17,06,48,14.30
2012,07,17,06,49,14.30
2012,07,17,06,50,14.30
2012,07,17,06,51,14.30
2012,07,17,06,52,14.30
2012,07,17,06,53,14.30
2012,07,17,06,54,14.30
2012,07,17,06,55,14.30
2012,07,17,06,56,14.30
2012,07,17,06,57,14.30
2012,07,17,06,58,14.30
2012,07,17,06,59,14.30
2012,07,17,07,00,14.40
2012,07,17,07,01,14.40
2012,07,17,07,02,14.40
2012,07,17,07,03,14.50
2012,07,17,07,04,14.50
2012,07,17,07,05,14.50
2012,07,17,07,06,14.60
2012,07,17,07,07,14.60
2012,07,17,07,08,14.70
2012,07,17,07,09,14.70
2012,07,17,07,10,14.80
2012,07,17,07,11,14.80
2012,07,17,07,12,14.90
2012,07,17,07,13,15.00
2012,07,17,07,14,15.00
2012,07,17,07,15,15.10
2012,07,17,07,16,15.20
2012,07,17,07,17,15.20
2012,07,17,07,18,15.30
2012,07,17,07,19,15.40
2012,07,17,07,20,15.40
2012,07,17,07,21,15.50
2012,07,17,07,22,15.60
2012,07,17,07,23,15.70
2012,07,17,07,24,15.70
2012,07,17,07,25,15.70
2012,07,17,07,26,15.80
2012,07,17,07,27,15.80
2012,07,17,07,28,15.80
2012,07,17,07,29,15.80
2012,07,17,07,30,15.80
2012,07,17,07,31,15.80
2012,07,17,07,32,15.90
2012,07,17,07,33,15.90
2012,07,17,07,34,15.90
2012,07,17,07,35,16.00
2012,07,17,07,36,16.00
2012,07,17,07,37,16.10
2012,07,17,07,38,16.10
2012,07,17,07,39,16.20
2012,07,17,07,40,16.20
2012,07,17,07,41,16.30
2012,07,17,07,42,16.30
2012,07,17,07,43,16.30
2012,07,17,07,44,16.30
2012,07,17,07,45,16.30
2012,07,17,07,46,16.30
2012,07,17,07,47,16.40
2012,07,17,07,48,16.40
2012,07,17,07,49,16.40
2012,07,17,07,50,16.40
2012,07,17,07,51,16.40
2012,07,17,07,52,16.50
2012,07,17,07,53,16.50
2012,07,17,07,54,16.60
2012,07,17,07,55,16.60
2012,07,17,07,56,16.60
2012,07,17,07,57,16.60
2012,07,17,07,58,16.70
2012,07,17,07,59,16.70
2012,07,17,08,00,16.70
2012,07,17,08,01,16.60
2012,07,17,08,02,16.60
2012,07,17,08,03,16.60
2012,07,17,08,04,16.50
2012,07,17,08,05,16.50
2012,07,17,08,06,16.40
2012,07,17,08,07,16.40
2012,07,17,08,08,16.50
2012,07,17,08,09,16.50
2012,07,17,08,10,16.50
2012,07,17,08,11,16.50
2012,07,17,08,12,16.50
2012,07,17,08,13,16.50
2012,07,17,08,14,16.50
2012,07,17,08,15,16.50
2012,07,17,08,16,16.50
2012,07,17,08,17,16.60
2012,07,17,08,18,16.60
2012,07,17,08,19,16.60
2012,07,17,08,20,16.70
2012,07,17,08,21,16.70
2012,07,17,08,22,16.70
2012,07,17,08,23,16.70
2012,07,17,08,24,16.80
2012,07,17,08,25,16.80
2012,07,17,08,26,16.80
2012,07,17,08,27,16.80
2012,07,17,08,28,16.80
2012,07,17,08,29,16.80
2012,07,17,08,30,16.90
2012,07,17,08,31,16.90
2012,07,17,08,32,16.90
2012,07,17,08,33,17.00
2012,07,17,08,34,17.00
2012,07,17,08,35,17.00
2012,07,17,08,36,17.10
2012,07,17,08,37,17.10
2012,07,17,08,38,17.10
2012,07,17,08,39,17.00
2012,07,17,08,40,17.10
2012,07,17,08,41,17.10
2012,07,17,08,42,17.10
2012,07,17,08,43,17.10
2012,07,17,08,44,17.20
2012,07,17,08,45,17.20
2012,07,17,08,46,17.30
2012,07,17,08,47,17.30
2012,07,17,08,48,17.30
2012,07,17,08,49,17.40
2012,07,17,08,50,17.40
2012,07,17,08,51,17.50
2012,07,17,08,52,17.50
2012,07,17,08,53,17.60
2012,07,17,08,54,17.60
2012,07,17,08,55,17.60
2012,07,17,08,56,17.60
2012,07,17,08,57,17.70
2012,07,17,08,58,17.70
2012,07,17,08,59,17.70
2012,07,17,09,00,17.70
2012,07,17,09,01,17.60
2012,07,17,09,02,17.60
2012,07,17,09,03,17.60
2012,07,17,09,04,17.70
2012,07,17,09,05,17.70
2012,07,17,09,06,17.80
2012,07,17,09,07,17.80
2012,07,17,09,08,17.90
2012,07,17,09,09,17.90
2012,07,17,09,10,17.90
2012,07,17,09,11,18.00
2012,07,17,09,12,18.00
2012,07,17,09,13,18.00
2012,07,17,09,14,18.00
2012,07,17,09,15,18.00
2012,07,17,09,16,18.00
2012,07,17,09,17,18.10
2012,07,17,09,18,18.20
2012,07,17,09,19,18.30
2012,07,17,09,20,18.40
2012,07,17,09,21,18.50
2012,07,17,09,22,18.60
2012,07,17,09,23,18.70
2012,07,17,09,24,18.70
2012,07,17,09,25,18.80
2012,07,17,09,26,18.80
2012,07,17,09,27,18.80
2012,07,17,09,28,18.90
2012,07,17,09,29,18.90
2012,07,17,09,30,18.90
2012,07,17,09,31,18.90
2012,07,17,09,32,18.90
2012,07,17,09,33,18.90
2012,07,17,09,34,18.90
2012,07,17,09,35,18.90
2012,07,17,09,36,19.00
2012,07,17,09,37,19.00
2012,07,17,09,38,19.10
2012,07,17,09,39,19.10
2012,07,17,09,40,19.10
2012,07,17,09,41,19.10
2012,07,17,09,42,19.10
2012,07,17,09,43,19.10
2012,07,17,09,44,19.10
2012,07,17,09,45,19.10
2012,07,17,09,46,19.20
2012,07,17,09,47,19.20
2012,07,17,09,48,19.20
2012,07,17,09,49,19.30
2012,07,17,09,50,19.30
2012,07,17,09,51,19.30
2012,07,17,09,52,19.30
2012,07,17,09,53,19.30
2012,07,17,09,54,19.40
2012,07,17,09,55,19.50
2012,07,17,09,56,19.60
2012,07,17,09,57,19.60
2012,07,17,09,58,19.70
2012,07,17,09,59,19.80
2012,07,17,10,00,19.80
2012,07,17,10,01,19.90
2012,07,17,10,02,19.90
2012,07,17,10,03,19.90
2012,07,17,10,04,19.90
2012,07,17,10,05,19.90
2012,07,17,10,06,19.90
2012,07,17,10,07,20.00
2012,07,17,10,08,20.00
2012,07,17,10,09,20.00
2012,07,17,10,10,20.10
2012,07,17,10,11,20.10
2012,07,17,10,12,20.10
2012,07,17,10,13,20.20
2012,07,17,10,14,20.20
2012,07,17,10,15,20.30
2012,07,17,10,16,20.40
2012,07,17,10,17,20.40
2012,07,17,10,18,20.40
2012,07,17,10,19,20.50
2012,07,17,10,20,20.50
2012,07,17,10,21,20.60
2012,07,17,10,22,20.60
2012,07,17,10,23,20.60
2012,07,17,10,24,20.70
2012,07,17,10,25,20.70
2012,07,17,10,26,20.80
2012,07,17,10,27,20.80
2012,07,17,10,28,20.90
2012,07,17,10,29,21.00
2012,07,17,10,30,21.10
2012,07,17,10,31,21.20
2012,07,17,10,32,21.30
2012,07,17,10,33,21.40
2012,07,17,10,34,21.40
2012,07,17,10,35,21.50
2012,07,17,10,36,21.60
2012,07,17,10,37,21.60
2012,07,17,10,38,21.60
2012,07,17,10,39,21.50
2012,07,17,10,40,21.50
2012,07,17,10,41,21.40
2012,07,17,10,42,21.40
2012,07,17,10,43,21.30
2012,07,17,10,44,21.30
2012,07,17,10,45,21.30
2012,07,17,10,46,21.30
2012,07,17,10,47,21.40
2012,07,17,10,48,21.40
2012,07,17,10,49,21.40
2012,07,17,10,50,21.50
2012,07,17,10,51,21.50
2012,07,17,10,52,21.50
2012,07,17,10,53,21.50
2012,07,17,10,54,21.60
2012,07,17,10,55,21.60
2012,07,17,10,56,21.60
2012,07,17,10,57,21.70
2012,07,17,10,58,21.80
2012,07,17,10,59,21.80
2012,07,17,11,00,21.90
2012,07,17,11,01,21.90
2012,07,17,11,02,22.00
2012,07,17,11,03,22.10
2012,07,17,11,04,22.20
2012,07,17,11,05,22.30
2012,07,17,11,06,22.30
2012,07,17,11,07,22.30
2012,07,17,11,08,22.40
2012,07,17,11,09,22.40
2012,07,17,11,10,22.40
2012,07,17,11,11,22.40
2012,07,17,11,12,22.40
2012,07,17,11,13,22.50
2012,07,17,11,14,22.50
2012,07,17,11,15,22.60
2012,07,17,11,16,22.70
2012,07,17,11,17,22.80
2012,07,17,11,18,22.80
2012,07,17,11,19,22.80
2012,07,17,11,20,22.90
2012,07,17,11,21,22.90
2012,07,17,11,22,23.10
2012,07,17,11,23,23.20
2012,07,17,11,24,23.40
2012,07,17,11,25,23.40
2012,07,17,11,26,23.50
2012,07,17,11,27,23.50
2012,07,17,11,28,23.50
2012,07,17,11,29,23.50
2012,07,17,11,30,23.40
2012,07,17,11,31,23.40
2012,07,17,11,32,23.40
2012,07,17,11,33,23.50
2012,07,17,11,34,23.50
2012,07,17,11,35,23.60
2012,07,17,11,36,23.60
2012,07,17,11,37,23.60
2012,07,17,11,38,23.70
2012,07,17,11,39,23.70
2012,07,17,11,40,23.70
2012,07,17,11,41,23.70
2012,07,17,11,42,23.70
2012,07,17,11,43,23.70
2012,07,17,11,44,23.80
2012,07,17,11,45,23.80
2012,07,17,11,46,23.80
2012,07,17,11,47,23.90
2012,07,17,11,48,24.00
2012,07,17,11,49,24.00
2012,07,17,11,50,24.10
2012,07,17,11,51,24.10
2012,07,17,11,52,24.10
2012,07,17,11,53,24.10
2012,07,17,11,54,24.20
2012,07,17,11,55,24.30
2012,07,17,11,56,24.30
2012,07,17,11,57,24.30
2012,07,17,11,58,24.30
2012,07,17,11,59,24.30
2012,07,17,12,00,24.30
2012,07,17,12,01,24.40
2012,07,17,12,02,24.50
2012,07,17,12,03,24.60
2012,07,17,12,04,24.70
2012,07,17,12,05,24.80
2012,07,17,12,06,24.80
2012,07,17,12,07,24.90
2012,07,17,12,08,25.00
2012,07,17,12,09,25.00
2012,07,17,12,10,25.10
2012,07,17,12,11,25.10
2012,07,17,12,12,25.20
2012,07,17,12,13,25.20
2012,07,17,12,14,25.30
2012,07,17,12,15,25.40
2012,07,17,12,16,25.40
2012,07,17,12,17,25.40
2012,07,17,12,18,25.40
2012,07,17,12,19,25.40
2012,07,17,12,20,25.40
2012,07,17,12,21,25.40
2012,07,17,12,22,25.40
2012,07,17,12,23,25.50
2012,07,17,12,24,25.60
2012,07,17,12,25,25.60
2012,07,17,12,26,25.70
2012,07,17,12,27,25.70
2012,07,17,12,28,25.80
2012,07,17,12,29,25.80
2012,07,17,12,30,25.90
2012,07,17,12,31,25.90
2012,07,17,12,32,25.90
2012,07,17,12,33,26.00
2012,07,17,12,34,26.00
2012,07,17,12,35,26.10
2012,07,17,12,36,26.10
2012,07,17,12,37,26.10
2012,07,17,12,38,26.10
2012,07,17,12,39,26.10
2012,07,17,12,40,26.10
2012,07,17,12,41,26.20
2012,07,17,12,42,26.20
2012,07,17,12,43,26.30
2012,07,17,12,44,26.40
2012,07,17,12,45,26.50
2012,07,17,12,46,26.50
2012,07,17,12,47,26.60
2012,07,17,12,48,26.60
2012,07,17,12,49,26.60
2012,07,17,12,50,26.60
2012,07,17,12,51,26.70
2012,07,17,12,52,26.70
2012,07,17,12,53,26.80
2012,07,17,12,54,26.80
2012,07,17,12,55,26.90
2012,07,17,12,56,27.00
2012,07,17,12,57,27.00
2012,07,17,12,58,27.10
2012,07,17,12,59,27.10
2012,07,17,13,00,27.10
2012,07,17,13,01,27.10
2012,07,17,13,02,27.10
2012,07,17,13,03,27.00
2012,07,17,13,04,27.10
2012,07,17,13,05,27.10
2012,07,17,13,06,27.20
2012,07,17,13,07,27.30
2012,07,17,13,08,27.40
2012,07,17,13,09,27.40
2012,07,17,13,10,27.40
2012,07,17,13,11,27.40
2012,07,17,13,12,27.50
2012,07,17,13,13,27.60
2012,07,17,13,14,27.60
2012,07,17,13,15,27.70
2012,07,17,13,16,27.70
2012,07,17,13,17,27.70
2012,07,17,13,18,27.70
2012,07,17,13,19,27.70
2012,07,17,13,20,27.70
2012,07,17,13,21,27.80
2012,07,17,13,22,27.80
2012,07,17,13,23,27.90
2012,07,17,13,24,28.00
2012,07,17,13,25,28.00
2012,07,17,13,26,28.10
2012,07,17,13,27,28.10
2012,07,17,13,28,28.10
2012,07,17,13,29,28.10
2012,07,17,13,30,28.20
2012,07,17,13,31,28.30
2012,07,17,13,32,28.40
2012,07,17,13,33,28.50
2012,07,17,13,34,28.70
2012,07,17,13,35,28.70
2012,07,17,13,36,28.70
2012,07,17,13,37,28.70
2012,07,17,13,38,28.70
2012,07,17,13,39,28.70
2012,07,17,13,40,28.70
2012,07,17,13,41,28.80
2012,07,17,13,42,29.00
2012,07,17,13,43,29.10
2012,07,17,13,44,29.20
2012,07,17,13,45,29.10
2012,07,17,13,46,29.00
2012,07,17,13,47,28.90
2012,07,17,13,48,28.80
2012,07,17,13,49,28.70
2012,07,17,13,50,28.60
2012,07,17,13,51,28.50
2012,07,17,13,52,28.40
2012,07,17,13,53,28.40
2012,07,17,13,54,28.40
2012,07,17,13,55,28.30
2012,07,17,13,56,28.30
2012,07,17,13,57,28.30
2012,07,17,13,58,28.40
2012,07,17,13,59,28.40
2012,07,17,14,00,28.30
2012,07,17,14,01,28.30
2012,07,17,14,02,28.30
2012,07,17,14,03,28.30
2012,07,17,14,04,28.30
2012,07,17,14,05,28.30
2012,07,17,14,06,28.30
2012,07,17,14,07,28.20
2012,07,17,14,08,28.30
2012,07,17,14,09,28.30
2012,07,17,14,10,28.30
2012,07,17,14,11,28.30
2012,07,17,14,12,28.40
2012,07,17,14,13,28.50
2012,07,17,14,14,28.50
2012,07,17,14,15,28.60
2012,07,17,14,16,28.60
2012,07,17,14,17,28.60
2012,07,17,14,18,28.60
2012,07,17,14,19,28.60
2012,07,17,14,20,28.60
2012,07,17,14,21,28.60
2012,07,17,14,22,28.60
2012,07,17,14,23,28.70
2012,07,17,14,24,28.70
2012,07,17,14,25,28.80
2012,07,17,14,26,28.70
2012,07,17,14,27,28.70
2012,07,17,14,28,28.70
2012,07,17,14,29,28.70
2012,07,17,14,30,28.80
2012,07,17,14,31,28.80
2012,07,17,14,32,28.90
2012,07,17,14,33,28.90
2012,07,17,14,34,29.00
2012,07,17,14,35,29.00
2012,07,17,14,36,29.10
2012,07,17,14,37,29.10
2012,07,17,14,38,29.10
2012,07,17,14,39,29.10
2012,07,17,14,40,29.00
2012,07,17,14,41,28.90
2012,07,17,14,42,28.90
2012,07,17,14,43,28.90
2012,07,17,14,44,29.00
2012,07,17,14,45,29.00
2012,07,17,14,46,29.00
2012,07,17,14,47,28.90
2012,07,17,14,48,28.90
2012,07,17,14,49,28.90
2012,07,17,14,50,29.00
2012,07,17,14,51,29.10
2012,07,17,14,52,29.10
2012,07,17,14,53,29.10
2012,07,17,14,54,29.10
2012,07,17,14,55,29.00
2012,07,17,14,56,29.00
2012,07,17,14,57,29.00
2012,07,17,14,58,28.90
2012,07,17,14,59,28.90
2012,07,17,15,00,28.90
2012,07,17,15,01,29.00
2012,07,17,15,02,29.10
2012,07,17,15,03,29.10
2012,07,17,15,04,29.10
2012,07,17,15,05,29.10
2012,07,17,15,06,29.10
2012,07,17,15,07,29.10
2012,07,17,15,08,29.10
2012,07,17,15,09,29.10
2012,07,17,15,10,29.10
2012,07,17,15,11,29.10
2012,07,17,15,12,29.20
2012,07,17,15,13,29.30
2012,07,17,15,14,29.30
2012,07,17,15,15,29.20
2012,07,17,15,16,29.10
2012,07,17,15,17,29.10
2012,07,17,15,18,29.10
2012,07,17,15,19,29.10
2012,07,17,15,20,29.10
2012,07,17,15,21,29.20
2012,07,17,15,22,29.20
2012,07,17,15,23,29.20
2012,07,17,15,24,29.20
2012,07,17,15,25,29.30
2012,07,17,15,26,29.30
2012,07,17,15,27,29.30
2012,07,17,15,28,29.30
2012,07,17,15,29,29.30
2012,07,17,15,30,29.30
2012,07,17,15,31,29.40
2012,07,17,15,32,29.40
2012,07,17,15,33,29.50
2012,07,17,15,34,29.50
2012,07,17,15,35,29.50
2012,07,17,15,36,29.40
2012,07,17,15,37,29.40
2012,07,17,15,38,29.30
2012,07,17,15,39,29.30
2012,07,17,15,40,29.30
2012,07,17,15,41,29.30
2012,07,17,15,42,29.30
2012,07,17,15,43,29.30
2012,07,17,15,44,29.30
2012,07,17,15,45,29.20
2012,07,17,15,46,29.20
2012,07,17,15,47,29.20
2012,07,17,15,48,29.30
2012,07,17,15,49,29.40
2012,07,17,15,50,29.30
2012,07,17,15,51,29.30
2012,07,17,15,52,29.30
2012,07,17,15,53,29.20
2012,07,17,15,54,29.20
2012,07,17,15,55,29.20
2012,07,17,15,56,29.20
2012,07,17,15,57,29.10
2012,07,17,15,58,29.00
2012,07,17,15,59,28.90
2012,07,17,16,00,28.90
2012,07,17,16,01,29.00
2012,07,17,16,02,29.00
2012,07,17,16,03,28.90
2012,07,17,16,04,28.90
2012,07,17,16,05,28.90
2012,07,17,16,06,28.80
2012,07,17,16,07,28.70
2012,07,17,16,08,28.70
2012,07,17,16,09,28.60
2012,07,17,16,10,28.70
2012,07,17,16,11,28.70
2012,07,17,16,12,28.70
2012,07,17,16,13,28.70
2012,07,17,16,14,28.70
2012,07,17,16,15,28.70
2012,07,17,16,16,28.60
2012,07,17,16,17,28.70
2012,07,17,16,18,28.70
2012,07,17,16,19,28.70
2012,07,17,16,20,28.60
2012,07,17,16,21,28.60
2012,07,17,16,22,28.70
2012,07,17,16,23,28.80
2012,07,17,16,24,28.80
2012,07,17,16,25,28.80
2012,07,17,16,26,28.80
2012,07,17,16,27,28.70
2012,07,17,16,28,28.70
2012,07,17,16,29,28.70
2012,07,17,16,30,28.70
2012,07,17,16,31,28.60
2012,07,17,16,32,28.70
2012,07,17,16,33,28.70
2012,07,17,16,34,28.70
2012,07,17,16,35,28.60
2012,07,17,16,36,28.50
2012,07,17,16,37,28.50
2012,07,17,16,38,28.40
2012,07,17,16,39,28.40
2012,07,17,16,40,28.40
2012,07,17,16,41,28.30
2012,07,17,16,42,28.30
2012,07,17,16,43,28.20
2012,07,17,16,44,28.20
2012,07,17,16,45,28.10
2012,07,17,16,46,28.20
2012,07,17,16,47,28.20
2012,07,17,16,48,28.20
2012,07,17,16,49,28.30
2012,07,17,16,50,28.30
2012,07,17,16,51,28.30
2012,07,17,16,52,28.30
2012,07,17,16,53,28.30
2012,07,17,16,54,28.30
2012,07,17,16,55,28.20
2012,07,17,16,56,28.20
2012,07,17,16,57,28.10
2012,07,17,16,58,28.10
2012,07,17,16,59,28.10
2012,07,17,17,00,28.10
2012,07,17,17,01,28.10
2012,07,17,17,02,28.10
2012,07,17,17,03,28.20
2012,07,17,17,04,28.20
2012,07,17,17,05,28.20
2012,07,17,17,06,28.10
2012,07,17,17,07,28.10
2012,07,17,17,08,28.00
2012,07,17,17,09,28.00
2012,07,17,17,10,27.90
2012,07,17,17,11,27.90
2012,07,17,17,12,27.80
2012,07,17,17,13,27.80
2012,07,17,17,14,27.80
2012,07,17,17,15,27.80
2012,07,17,17,16,27.80
2012,07,17,17,17,27.90
2012,07,17,17,18,27.90
2012,07,17,17,19,27.90